Hourly Data Report for October 04, 2017

All times are specified in Local Standard Time (LST). Add 1 hour to adjust for Daylight Saving Time where and when it is observed.

ESQUIMALT HARBOUR
BRITISH COLUMBIA

48°25'55.100" N
123°26'21.600" W
3.00 m
1012710
71798
WPF

Download Data

Hourly Data (October 2017)
Hourly Data Report for October 4, 2017
Temp Definition
°C
Dew Point Temp Definition
°C
Rel Hum Definition
%
Wind Dir Definition
10's deg

Wind Spd Definition
km/h
Visibility Definition
km
Stn Press Definition
kPa
Hmdx Definition


Wind Chill Definition


Weather Definition


TIME
00:00 8.7 4.8 76 1 10   102.24     LegendNANA
01:00 8.5 4.3 75 1 7   102.26     LegendNANA
02:00 7.9 4.4 78 1 7   102.25     LegendNANA
03:00 7.9 4.6 80 1 9   102.21     LegendNANA
04:00 7.4 3.8 78 2 7   102.17     LegendNANA
05:00 7.7 4.1 78 1 3   102.14     LegendNANA
06:00 7.7 4.8 82 36 2   102.14     LegendNANA
07:00 7.5 4.2 79 1 7   102.17     LegendNANA
08:00 9.5 4.8 72 2 6   102.17     LegendNANA
09:00 12.7 2.5 50 33 1   102.15     LegendNANA
10:00 14.4 3.7 49 6 7   102.18     LegendNANA
11:00 15.7 2.3 41 3 12   102.13     LegendNANA
12:00 13.4 7.6 68 16 7   102.12     LegendNANA
13:00 12.5 8.0 74 19 4   102.09     LegendNANA
14:00 12.3 8.5 78 18 11   102.07     LegendNANA
15:00 12.4 9.1 81 21 8   102.07     LegendNANA
16:00 12.8 7.9 72 20 4   102.06     LegendNANA
17:00 12.8 7.3 69 19 5   102.04     LegendNANA
18:00 13.0 5.3 60 16 1   102.01     LegendNANA
19:00 11.5 7.6 77 2 5   102.03     LegendNANA
20:00 11.0 5.7 70 1 5   102.04     LegendNANA
21:00 10.4 5.1 70 3 6   102.05     LegendNANA
22:00 9.3 5.2 76 2 5   102.08     LegendNANA
23:00 8.9 5.3 78 1 7   102.09     LegendNANA

Notes on Data Quality.

Legend

  • E = Estimated
  • M = Missing
  • NA = Not Available
  • ‡ = Partner data that is not subject to review by the National Climate Archives
Date modified: